Time,TemperatureF,DewpointF,PressureIn,WindDirection,WindDirectionDegrees,WindSpeedMPH,WindSpeedGustMPH,Humidity,HourlyPrecipIn,Conditions,Clouds,dailyrainin,SoftwareType,DateUTC
2013-01-22 00:01:00,62.1,52.2,30.08,NNW,328,6.0,16.0,70,0.00,,,0.00,meteohub,2013-01-22 05:01:00,
2013-01-22 00:02:00,62.1,52.2,30.08,NNE,13,9.0,16.0,70,0.00,,,0.00,meteohub,2013-01-22 05:02:00,
2013-01-22 00:04:00,62.1,51.8,30.08,NNE,25,9.0,16.0,69,0.00,,,0.00,meteohub,2013-01-22 05:04:00,
2013-01-22 00:11:00,61.9,51.6,30.08,NNW,329,9.0,16.0,69,0.00,,,0.00,meteohub,2013-01-22 05:11:00,
2013-01-22 00:14:00,61.9,51.6,30.08,North,4,6.0,16.0,69,0.00,,,0.00,meteohub,2013-01-22 05:14:00,
2013-01-22 00:20:00,61.9,52.0,30.07,NNW,348,4.0,15.0,70,0.00,,,0.00,meteohub,2013-01-22 05:20:00,
2013-01-22 00:26:00,61.9,52.0,30.08,East,85,7.0,14.0,70,0.00,,,0.00,meteohub,2013-01-22 05:26:00,
2013-01-22 00:32:00,61.9,52.3,30.07,WNW,285,4.0,14.0,71,0.00,,,0.00,meteohub,2013-01-22 05:32:00,
2013-01-22 00:37:00,61.7,52.2,30.08,NNE,22,11.0,14.0,71,0.00,,,0.00,meteohub,2013-01-22 05:37:00,
2013-01-22 00:42:00,61.7,52.5,30.07,NNW,337,8.0,14.0,72,0.00,,,0.00,meteohub,2013-01-22 05:42:00,
2013-01-22 00:47:00,61.9,52.7,30.07,North,4,12.0,14.0,72,0.00,,,0.00,meteohub,2013-01-22 05:47:00,
2013-01-22 00:53:00,61.5,53.2,30.07,NW,312,3.0,14.0,74,0.00,,,0.00,meteohub,2013-01-22 05:53:00,
2013-01-22 00:59:00,61.5,53.2,30.07,NE,48,2.0,14.0,74,0.00,,,0.00,meteohub,2013-01-22 05:59:00,
2013-01-22 01:05:00,61.5,53.6,30.07,NNE,27,8.0,14.0,75,0.00,,,0.00,meteohub,2013-01-22 06:05:00,
2013-01-22 01:11:00,61.5,52.7,30.06,NNW,345,8.0,14.0,73,0.00,,,0.00,meteohub,2013-01-22 06:11:00,
2013-01-22 01:17:00,61.5,53.2,30.06,NNE,27,8.0,16.0,74,0.00,,,0.00,meteohub,2013-01-22 06:17:00,
2013-01-22 01:22:00,61.7,53.2,30.07,North,354,10.0,16.0,74,0.00,,,0.00,meteohub,2013-01-22 06:22:00,
2013-01-22 01:27:00,61.7,53.2,30.07,NE,41,3.0,16.0,74,0.00,,,0.00,meteohub,2013-01-22 06:27:00,
2013-01-22 01:32:00,61.7,53.2,30.07,NNE,18,2.0,15.0,74,0.00,,,0.00,meteohub,2013-01-22 06:32:00,
2013-01-22 01:37:00,61.5,53.2,30.06,North,349,8.0,15.0,74,0.00,,,0.00,meteohub,2013-01-22 06:37:00,
2013-01-22 01:42:00,61.5,52.7,30.06,East,81,14.0,14.0,73,0.00,,,0.00,meteohub,2013-01-22 06:42:00,
2013-01-22 01:47:00,61.5,52.7,30.05,NE,48,6.0,14.0,73,0.00,,,0.00,meteohub,2013-01-22 06:47:00,
2013-01-22 01:52:00,61.5,52.7,30.06,NNE,16,3.0,14.0,73,0.00,,,0.00,meteohub,2013-01-22 06:52:00,
2013-01-22 01:57:00,61.5,52.7,30.06,North,4,4.0,14.0,73,0.00,,,0.00,meteohub,2013-01-22 06:57:00,
2013-01-22 02:02:00,61.3,52.7,30.06,North,4,5.0,11.0,73,0.00,,,0.00,meteohub,2013-01-22 07:02:00,
2013-01-22 02:08:00,61.3,52.7,30.05,NNE,19,4.0,12.0,73,0.00,,,0.00,meteohub,2013-01-22 07:08:00,
2013-01-22 02:14:00,61.2,52.9,30.06,NNE,33,2.0,12.0,74,0.00,,,0.00,meteohub,2013-01-22 07:14:00,
2013-01-22 02:21:00,61.2,52.9,30.06,NE,41,3.0,11.0,74,0.00,,,0.00,meteohub,2013-01-22 07:21:00,
2013-01-22 02:27:00,61.2,52.5,30.06,North,8,2.0,8.0,73,0.00,,,0.00,meteohub,2013-01-22 07:27:00,
2013-01-22 02:33:00,61.0,52.0,30.06,NE,44,2.0,9.0,72,0.00,,,0.00,meteohub,2013-01-22 07:33:00,
2013-01-22 02:39:00,61.2,51.3,30.06,NE,48,6.0,9.0,70,0.00,,,0.00,meteohub,2013-01-22 07:39:00,
2013-01-22 02:45:00,61.0,50.7,30.06,NE,46,2.0,11.0,69,0.00,,,0.00,meteohub,2013-01-22 07:45:00,
2013-01-22 02:51:00,61.0,50.4,30.06,NE,54,4.0,11.0,68,0.00,,,0.00,meteohub,2013-01-22 07:51:00,
2013-01-22 02:57:00,60.8,49.8,30.06,NE,39,4.0,8.0,67,0.00,,,0.00,meteohub,2013-01-22 07:57:00,
2013-01-22 03:02:00,60.6,49.6,30.06,NNE,24,0.0,8.0,67,0.00,,,0.00,meteohub,2013-01-22 08:02:00,
2013-01-22 03:09:00,60.6,49.3,30.06,NNE,31,1.0,7.0,66,0.00,,,0.00,meteohub,2013-01-22 08:09:00,
2013-01-22 03:15:00,60.6,49.3,30.06,North,8,2.0,7.0,66,0.00,,,0.00,meteohub,2013-01-22 08:15:00,
2013-01-22 03:21:00,60.4,48.6,30.05,NE,49,6.0,8.0,65,0.00,,,0.00,meteohub,2013-01-22 08:21:00,
2013-01-22 03:27:00,60.4,48.2,30.06,NE,52,4.0,11.0,64,0.00,,,0.00,meteohub,2013-01-22 08:27:00,
2013-01-22 03:32:00,60.4,47.8,30.06,NNE,33,5.0,11.0,63,0.00,,,0.00,meteohub,2013-01-22 08:32:00,
2013-01-22 03:37:00,60.3,47.1,30.06,North,354,2.0,11.0,62,0.00,,,0.00,meteohub,2013-01-22 08:37:00,
2013-01-22 03:42:00,60.3,47.1,30.06,NNE,33,2.0,7.0,62,0.00,,,0.00,meteohub,2013-01-22 08:42:00,
2013-01-22 03:47:00,60.1,46.9,30.05,NE,52,3.0,7.0,62,0.00,,,0.00,meteohub,2013-01-22 08:47:00,
2013-01-22 03:52:00,60.1,46.9,30.05,NE,41,3.0,7.0,62,0.00,,,0.00,meteohub,2013-01-22 08:52:00,
2013-01-22 03:57:00,59.9,46.8,30.06,NE,44,3.0,6.0,62,0.00,,,0.00,meteohub,2013-01-22 08:57:00,
2013-01-22 04:02:00,59.9,46.4,30.06,NE,43,2.0,7.0,61,0.00,,,0.00,meteohub,2013-01-22 09:02:00,
2013-01-22 04:07:00,59.9,46.8,30.06,NE,42,1.0,7.0,62,0.00,,,0.00,meteohub,2013-01-22 09:07:00,
2013-01-22 04:12:00,59.7,46.2,30.06,NE,48,3.0,7.0,61,0.00,,,0.00,meteohub,2013-01-22 09:12:00,
2013-01-22 04:17:00,59.7,46.8,30.06,NE,46,0.0,4.0,62,0.00,,,0.00,meteohub,2013-01-22 09:17:00,
2013-01-22 04:22:00,59.7,46.2,30.06,NNE,27,1.0,5.0,61,0.00,,,0.00,meteohub,2013-01-22 09:22:00,
2013-01-22 04:27:00,59.7,46.2,30.06,NE,41,3.0,5.0,61,0.00,,,0.00,meteohub,2013-01-22 09:27:00,
2013-01-22 04:32:00,59.5,45.7,30.06,NE,35,0.0,5.0,60,0.00,,,0.00,meteohub,2013-01-22 09:32:00,
2013-01-22 04:37:00,59.5,45.1,30.06,NE,56,5.0,5.0,59,0.00,,,0.00,meteohub,2013-01-22 09:37:00,
2013-01-22 04:42:00,59.5,45.1,30.06,NNE,21,3.0,5.0,59,0.00,,,0.00,meteohub,2013-01-22 09:42:00,
2013-01-22 04:47:00,59.5,44.8,30.06,NNE,20,5.0,6.0,58,0.00,,,0.00,meteohub,2013-01-22 09:47:00,
2013-01-22 04:52:00,59.5,44.8,30.06,NE,37,4.0,8.0,58,0.00,,,0.00,meteohub,2013-01-22 09:52:00,
2013-01-22 04:58:00,59.5,44.2,30.07,NE,42,2.0,8.0,57,0.00,,,0.00,meteohub,2013-01-22 09:58:00,
2013-01-22 05:04:00,59.5,44.2,30.07,North,359,3.0,8.0,57,0.00,,,0.00,meteohub,2013-01-22 10:04:00,
2013-01-22 05:10:00,59.4,44.1,30.08,NE,46,3.0,7.0,57,0.00,,,0.00,meteohub,2013-01-22 10:10:00,
2013-01-22 05:16:00,59.2,44.4,30.08,NE,35,2.0,8.0,58,0.00,,,0.00,meteohub,2013-01-22 10:16:00,
2013-01-22 05:22:00,59.2,44.4,30.08,NE,41,3.0,9.0,58,0.00,,,0.00,meteohub,2013-01-22 10:22:00,
2013-01-22 05:27:00,59.2,44.4,30.08,NNE,26,3.0,9.0,58,0.00,,,0.00,meteohub,2013-01-22 10:27:00,
2013-01-22 05:32:00,59.0,44.2,30.08,ENE,58,4.0,9.0,58,0.00,,,0.00,meteohub,2013-01-22 10:32:00,
2013-01-22 05:37:00,58.8,44.6,30.08,NE,34,2.0,9.0,59,0.00,,,0.00,meteohub,2013-01-22 10:37:00,
2013-01-22 05:42:00,58.6,44.4,30.08,NE,50,2.0,7.0,59,0.00,,,0.00,meteohub,2013-01-22 10:42:00,
2013-01-22 05:47:00,58.6,44.8,30.08,NNE,33,3.0,7.0,60,0.00,,,0.00,meteohub,2013-01-22 10:47:00,
2013-01-22 05:52:00,58.5,44.2,30.08,North,8,4.0,6.0,59,0.00,,,0.00,meteohub,2013-01-22 10:52:00,
2013-01-22 05:57:00,58.5,44.2,30.09,NNE,30,4.0,6.0,59,0.00,,,0.00,meteohub,2013-01-22 10:57:00,
2013-01-22 06:02:00,58.3,44.4,30.08,NE,34,3.0,7.0,60,0.00,,,0.00,meteohub,2013-01-22 11:02:00,
2013-01-22 06:07:00,58.3,44.4,30.09,NE,37,6.0,7.0,60,0.00,,,0.00,meteohub,2013-01-22 11:07:00,
2013-01-22 06:12:00,58.1,44.2,30.09,NE,39,3.0,7.0,60,0.00,,,0.00,meteohub,2013-01-22 11:12:00,
2013-01-22 06:17:00,57.9,44.1,30.09,NE,44,4.0,6.0,60,0.00,,,0.00,meteohub,2013-01-22 11:17:00,
2013-01-22 06:22:00,57.9,44.6,30.09,NNE,32,1.0,6.0,61,0.00,,,0.00,meteohub,2013-01-22 11:22:00,
2013-01-22 06:28:00,57.7,44.4,30.10,NNE,16,2.0,6.0,61,0.00,,,0.00,meteohub,2013-01-22 11:28:00,
2013-01-22 06:35:00,57.6,44.2,30.10,ENE,58,1.0,5.0,61,0.00,,,0.00,meteohub,2013-01-22 11:35:00,
2013-01-22 06:41:00,57.6,44.6,30.10,NE,38,1.0,4.0,62,0.00,,,0.00,meteohub,2013-01-22 11:41:00,
2013-01-22 06:47:00,57.6,44.6,30.11,NNE,33,2.0,4.0,62,0.00,,,0.00,meteohub,2013-01-22 11:47:00,
2013-01-22 06:53:00,57.4,44.4,30.11,NE,37,3.0,4.0,62,0.00,,,0.00,meteohub,2013-01-22 11:53:00,
2013-01-22 06:59:00,57.4,44.4,30.11,NNE,32,3.0,4.0,62,0.00,,,0.00,meteohub,2013-01-22 11:59:00,
2013-01-22 07:05:00,57.4,44.4,30.11,NE,39,0.0,4.0,62,0.00,,,0.00,meteohub,2013-01-22 12:05:00,
2013-01-22 07:11:00,57.0,44.6,30.11,NE,49,1.0,4.0,63,0.00,,,0.00,meteohub,2013-01-22 12:11:00,
2013-01-22 07:17:00,56.8,44.4,30.12,NNE,14,0.0,4.0,63,0.00,,,0.00,meteohub,2013-01-22 12:17:00,
2013-01-22 07:23:00,56.7,44.2,30.13,North,4,1.0,5.0,63,0.00,,,0.00,meteohub,2013-01-22 12:23:00,
2013-01-22 07:29:00,56.5,44.4,30.13,NNE,33,2.0,5.0,64,0.00,,,0.00,meteohub,2013-01-22 12:29:00,
2013-01-22 07:35:00,56.8,44.4,30.14,NE,49,2.0,7.0,63,0.00,,,0.00,meteohub,2013-01-22 12:35:00,
2013-01-22 07:41:00,56.8,44.4,30.14,NNE,23,0.0,8.0,63,0.00,,,0.00,meteohub,2013-01-22 12:41:00,
2013-01-22 07:47:00,56.7,43.7,30.14,NE,35,1.0,8.0,62,0.00,,,0.00,meteohub,2013-01-22 12:47:00,
2013-01-22 07:54:00,56.7,43.7,30.14,NE,37,4.0,8.0,62,0.00,,,0.00,meteohub,2013-01-22 12:54:00,
2013-01-22 08:00:00,56.7,43.7,30.15,North,9,4.0,8.0,62,0.00,,,0.00,meteohub,2013-01-22 13:00:00,
2013-01-22 08:06:00,56.7,43.7,30.15,NNW,335,2.0,8.0,62,0.00,,,0.00,meteohub,2013-01-22 13:06:00,
2013-01-22 08:12:00,56.7,43.3,30.16,NNE,26,3.0,10.0,61,0.00,,,0.00,meteohub,2013-01-22 13:12:00,
2013-01-22 08:17:00,56.7,43.3,30.16,NNE,26,4.0,10.0,61,0.00,,,0.00,meteohub,2013-01-22 13:17:00,
2013-01-22 08:22:00,56.7,43.0,30.16,NE,49,6.0,10.0,60,0.00,,,0.00,meteohub,2013-01-22 13:22:00,
2013-01-22 08:27:00,56.7,43.0,30.16,ENE,62,2.0,12.0,60,0.00,,,0.00,meteohub,2013-01-22 13:27:00,
2013-01-22 08:33:00,56.8,43.2,30.17,East,84,5.0,12.0,60,0.00,,,0.00,meteohub,2013-01-22 13:33:00,
2013-01-22 08:39:00,57.0,43.3,30.17,NNE,23,4.0,12.0,60,0.00,,,0.00,meteohub,2013-01-22 13:39:00,
2013-01-22 08:45:00,56.8,43.2,30.18,NE,50,2.0,10.0,60,0.00,,,0.00,meteohub,2013-01-22 13:45:00,
2013-01-22 08:51:00,57.2,42.6,30.18,NE,55,7.0,10.0,58,0.00,,,0.00,meteohub,2013-01-22 13:51:00,
2013-01-22 08:57:00,57.4,42.8,30.18,NNE,28,5.0,10.0,58,0.00,,,0.00,meteohub,2013-01-22 13:57:00,
2013-01-22 09:02:00,57.4,42.8,30.19,North,354,5.0,11.0,58,0.00,,,0.00,meteohub,2013-01-22 14:02:00,
2013-01-22 09:07:00,57.4,42.3,30.19,North,354,2.0,11.0,57,0.00,,,0.00,meteohub,2013-01-22 14:07:00,
2013-01-22 09:12:00,57.4,41.9,30.19,ENE,61,9.0,12.0,56,0.00,,,0.00,meteohub,2013-01-22 14:12:00,
2013-01-22 09:17:00,57.4,40.8,30.19,ENE,64,8.0,12.0,54,0.00,,,0.00,meteohub,2013-01-22 14:17:00,
2013-01-22 09:22:00,57.4,40.8,30.19,ENE,57,10.0,13.0,54,0.00,,,0.00,meteohub,2013-01-22 14:22:00,
2013-01-22 09:27:00,57.6,41.0,30.19,NE,46,6.0,13.0,54,0.00,,,0.00,meteohub,2013-01-22 14:27:00,
2013-01-22 09:34:00,57.7,40.6,30.20,NE,54,3.0,13.0,53,0.00,,,0.00,meteohub,2013-01-22 14:34:00,
2013-01-22 09:40:00,57.7,40.3,30.20,NW,312,5.0,13.0,52,0.00,,,0.00,meteohub,2013-01-22 14:40:00,
2013-01-22 09:46:00,57.7,39.7,30.21,NE,52,6.0,12.0,51,0.00,,,0.00,meteohub,2013-01-22 14:46:00,
2013-01-22 09:52:00,58.3,40.3,30.21,North,4,7.0,15.0,51,0.00,,,0.00,meteohub,2013-01-22 14:52:00,
2013-01-22 09:58:00,58.5,40.5,30.21,NE,48,5.0,15.0,51,0.00,,,0.00,meteohub,2013-01-22 14:58:00,
2013-01-22 10:04:00,58.6,40.6,30.21,North,8,5.0,15.0,51,0.00,,,0.00,meteohub,2013-01-22 15:04:00,
2013-01-22 10:10:00,58.6,40.6,30.21,NNE,27,7.0,13.0,51,0.00,,,0.00,meteohub,2013-01-22 15:10:00,
2013-01-22 10:16:00,59.0,40.8,30.21,ENE,70,3.0,12.0,51,0.00,,,0.00,meteohub,2013-01-22 15:16:00,
2013-01-22 10:22:00,59.4,40.6,30.22,ENE,58,4.0,13.0,50,0.00,,,0.00,meteohub,2013-01-22 15:22:00,
2013-01-22 10:28:00,59.4,39.7,30.22,ENE,70,12.0,13.0,48,0.00,,,0.00,meteohub,2013-01-22 15:28:00,
2013-01-22 10:35:00,59.5,39.9,30.21,ENE,57,10.0,13.0,48,0.00,,,0.00,meteohub,2013-01-22 15:35:00,
2013-01-22 10:41:00,59.5,39.9,30.21,East,79,6.0,15.0,48,0.00,,,0.00,meteohub,2013-01-22 15:41:00,
2013-01-22 10:47:00,59.7,39.4,30.22,ENE,69,7.0,13.0,47,0.00,,,0.00,meteohub,2013-01-22 15:47:00,
2013-01-22 10:52:00,60.1,40.3,30.22,East,85,11.0,13.0,48,0.00,,,0.00,meteohub,2013-01-22 15:52:00,
2013-01-22 10:57:00,60.3,39.9,30.22,ENE,68,9.0,13.0,47,0.00,,,0.00,meteohub,2013-01-22 15:57:00,
2013-01-22 11:02:00,60.4,40.6,30.22,ESE,115,4.0,13.0,48,0.00,,,0.00,meteohub,2013-01-22 16:02:00,
2013-01-22 11:08:00,60.6,40.3,30.22,NE,35,6.0,13.0,47,0.00,,,0.00,meteohub,2013-01-22 16:08:00,
2013-01-22 11:14:00,61.2,40.3,30.21,ESE,105,8.0,13.0,46,0.00,,,0.00,meteohub,2013-01-22 16:14:00,
2013-01-22 11:20:00,61.5,39.9,30.21,East,89,6.0,15.0,45,0.00,,,0.00,meteohub,2013-01-22 16:20:00,
2013-01-22 11:26:00,62.1,40.5,30.21,East,80,8.0,15.0,45,0.00,,,0.00,meteohub,2013-01-22 16:26:00,
2013-01-22 11:32:00,62.2,40.1,30.21,NE,54,5.0,13.0,44,0.00,,,0.00,meteohub,2013-01-22 16:32:00,
2013-01-22 11:37:00,62.2,40.1,30.21,ENE,60,10.0,13.0,44,0.00,,,0.00,meteohub,2013-01-22 16:37:00,
2013-01-22 11:42:00,62.4,40.3,30.21,ESE,108,5.0,13.0,44,0.00,,,0.00,meteohub,2013-01-22 16:42:00,
2013-01-22 11:47:00,63.0,40.6,30.20,ENE,59,7.0,13.0,44,0.00,,,0.00,meteohub,2013-01-22 16:47:00,
2013-01-22 11:52:00,63.3,40.5,30.20,ENE,58,9.0,11.0,43,0.00,,,0.00,meteohub,2013-01-22 16:52:00,
2013-01-22 11:57:00,63.7,40.8,30.20,NNE,30,7.0,12.0,43,0.00,,,0.00,meteohub,2013-01-22 16:57:00,
2013-01-22 12:02:00,64.0,40.5,30.20,NE,44,5.0,12.0,42,0.00,,,0.00,meteohub,2013-01-22 17:02:00,
2013-01-22 12:08:00,64.2,40.6,30.20,NE,52,6.0,12.0,42,0.00,,,0.00,meteohub,2013-01-22 17:08:00,
2013-01-22 12:14:00,64.0,38.7,30.19,NE,54,5.0,14.0,39,0.00,,,0.00,meteohub,2013-01-22 17:14:00,
2013-01-22 12:21:00,64.2,38.7,30.19,NE,52,5.0,14.0,39,0.00,,,0.00,meteohub,2013-01-22 17:21:00,
2013-01-22 12:27:00,64.6,38.5,30.19,NE,52,5.0,14.0,38,0.00,,,0.00,meteohub,2013-01-22 17:27:00,
2013-01-22 12:33:00,65.1,38.8,30.19,ENE,61,5.0,14.0,38,0.00,,,0.00,meteohub,2013-01-22 17:33:00,
2013-01-22 12:39:00,65.3,36.1,30.19,ENE,77,7.0,11.0,34,0.00,,,0.00,meteohub,2013-01-22 17:39:00,
2013-01-22 12:45:00,65.7,36.5,30.18,NE,41,3.0,11.0,34,0.00,,,0.00,meteohub,2013-01-22 17:45:00,
2013-01-22 12:51:00,65.8,36.0,30.19,ESE,107,5.0,11.0,33,0.00,,,0.00,meteohub,2013-01-22 17:51:00,
2013-01-22 12:57:00,66.0,34.5,30.18,ENE,77,7.0,13.0,31,0.00,,,0.00,meteohub,2013-01-22 17:57:00,
2013-01-22 13:04:00,66.2,34.7,30.18,ENE,65,4.0,13.0,31,0.00,,,0.00,meteohub,2013-01-22 18:04:00,
2013-01-22 13:10:00,64.9,44.2,30.18,West,275,2.0,13.0,47,0.00,,,0.00,meteohub,2013-01-22 18:10:00,
2013-01-22 13:16:00,63.9,45.9,30.17,WNW,293,6.0,14.0,52,0.00,,,0.00,meteohub,2013-01-22 18:16:00,
2013-01-22 13:22:00,62.4,46.6,30.17,North,4,6.0,14.0,56,0.00,,,0.00,meteohub,2013-01-22 18:22:00,
2013-01-22 13:28:00,62.1,46.2,30.17,NE,48,8.0,14.0,56,0.00,,,0.00,meteohub,2013-01-22 18:28:00,
2013-01-22 13:34:00,61.5,46.6,30.17,North,359,7.0,16.0,58,0.00,,,0.00,meteohub,2013-01-22 18:34:00,
2013-01-22 13:40:00,61.5,46.2,30.17,NNE,24,8.0,16.0,57,0.00,,,0.00,meteohub,2013-01-22 18:40:00,
2013-01-22 13:46:00,61.3,46.9,30.16,NNE,23,4.0,17.0,59,0.00,,,0.00,meteohub,2013-01-22 18:46:00,
2013-01-22 13:52:00,61.3,46.9,30.16,North,4,6.0,17.0,59,0.00,,,0.00,meteohub,2013-01-22 18:52:00,
2013-01-22 13:57:00,61.2,47.7,30.16,North,350,11.0,15.0,61,0.00,,,0.00,meteohub,2013-01-22 18:57:00,
2013-01-22 14:02:00,61.2,47.1,30.17,NNW,340,10.0,15.0,60,0.00,,,0.00,meteohub,2013-01-22 19:02:00,
2013-01-22 14:07:00,61.2,47.7,30.16,NNW,341,5.0,15.0,61,0.00,,,0.00,meteohub,2013-01-22 19:07:00,
2013-01-22 14:13:00,61.0,46.9,30.16,NNE,13,4.0,14.0,60,0.00,,,0.00,meteohub,2013-01-22 19:13:00,
2013-01-22 14:19:00,61.3,47.3,30.16,WNW,301,5.0,16.0,60,0.00,,,0.00,meteohub,2013-01-22 19:19:00,
2013-01-22 14:26:00,61.5,47.1,30.16,NNW,341,11.0,14.0,59,0.00,,,0.00,meteohub,2013-01-22 19:26:00,
2013-01-22 14:32:00,61.3,46.4,30.16,NNW,330,4.0,15.0,58,0.00,,,0.00,meteohub,2013-01-22 19:32:00,
2013-01-22 14:37:00,61.2,46.8,30.16,NNW,338,11.0,16.0,59,0.00,,,0.00,meteohub,2013-01-22 19:37:00,
2013-01-22 14:42:00,61.2,47.7,30.16,NW,319,3.0,16.0,61,0.00,,,0.00,meteohub,2013-01-22 19:42:00,
2013-01-22 14:47:00,61.3,47.8,30.16,NNW,342,11.0,16.0,61,0.00,,,0.00,meteohub,2013-01-22 19:47:00,
2013-01-22 14:53:00,61.3,48.2,30.16,North,4,6.0,16.0,62,0.00,,,0.00,meteohub,2013-01-22 19:53:00,
2013-01-22 14:59:00,61.9,47.8,30.16,NE,46,5.0,15.0,60,0.00,,,0.00,meteohub,2013-01-22 19:59:00,
2013-01-22 15:05:00,62.2,48.2,30.16,NE,39,2.0,15.0,60,0.00,,,0.00,meteohub,2013-01-22 20:05:00,
2013-01-22 15:11:00,63.0,48.0,30.16,North,4,6.0,12.0,58,0.00,,,0.00,meteohub,2013-01-22 20:11:00,
2013-01-22 15:17:00,62.2,48.2,30.16,North,354,10.0,12.0,60,0.00,,,0.00,meteohub,2013-01-22 20:17:00,
2013-01-22 15:22:00,62.1,47.5,30.17,NE,40,6.0,12.0,59,0.00,,,0.00,meteohub,2013-01-22 20:22:00,
2013-01-22 15:29:00,61.9,47.8,30.17,NNW,345,6.0,14.0,60,0.00,,,0.00,meteohub,2013-01-22 20:29:00,
2013-01-22 15:35:00,62.4,45.1,30.17,NNE,22,5.0,14.0,53,0.00,,,0.00,meteohub,2013-01-22 20:35:00,
2013-01-22 15:41:00,63.0,46.9,30.17,North,354,7.0,14.0,56,0.00,,,0.00,meteohub,2013-01-22 20:41:00,
2013-01-22 15:47:00,63.7,34.7,30.17,NE,43,4.0,11.0,34,0.00,,,0.00,meteohub,2013-01-22 20:47:00,
2013-01-22 15:52:00,64.2,33.8,30.17,NE,50,6.0,11.0,32,0.00,,,0.00,meteohub,2013-01-22 20:52:00,
2013-01-22 15:57:00,64.4,34.0,30.17,NNE,27,7.0,12.0,32,0.00,,,0.00,meteohub,2013-01-22 20:57:00,
2013-01-22 16:02:00,63.1,47.1,30.17,North,11,4.0,13.0,56,0.00,,,0.00,meteohub,2013-01-22 21:02:00,
2013-01-22 16:08:00,62.2,48.2,30.17,North,4,9.0,13.0,60,0.00,,,0.00,meteohub,2013-01-22 21:08:00,
2013-01-22 16:15:00,61.9,47.5,30.18,North,354,7.0,13.0,59,0.00,,,0.00,meteohub,2013-01-22 21:15:00,
2013-01-22 16:21:00,61.9,47.8,30.17,North,359,7.0,16.0,60,0.00,,,0.00,meteohub,2013-01-22 21:21:00,
2013-01-22 16:27:00,61.9,47.5,30.18,NE,38,12.0,16.0,59,0.00,,,0.00,meteohub,2013-01-22 21:27:00,
2013-01-22 16:33:00,61.5,47.1,30.18,NNE,15,10.0,15.0,59,0.00,,,0.00,meteohub,2013-01-22 21:33:00,
2013-01-22 16:39:00,61.9,47.8,30.18,NW,320,6.0,15.0,60,0.00,,,0.00,meteohub,2013-01-22 21:39:00,
2013-01-22 16:45:00,61.9,47.5,30.18,North,349,2.0,15.0,59,0.00,,,0.00,meteohub,2013-01-22 21:45:00,
2013-01-22 16:51:00,62.1,47.1,30.18,NNE,29,4.0,11.0,58,0.00,,,0.00,meteohub,2013-01-22 21:51:00,
2013-01-22 16:57:00,62.1,46.6,30.18,North,4,2.0,11.0,57,0.00,,,0.00,meteohub,2013-01-22 21:57:00,
2013-01-22 17:03:00,62.2,41.7,30.18,ENE,71,10.0,11.0,47,0.00,,,0.00,meteohub,2013-01-22 22:03:00,
2013-01-22 17:09:00,63.0,37.0,30.19,NE,43,5.0,10.0,38,0.00,,,0.00,meteohub,2013-01-22 22:09:00,
2013-01-22 17:15:00,63.1,33.6,30.19,NE,53,5.0,11.0,33,0.00,,,0.00,meteohub,2013-01-22 22:15:00,
2013-01-22 17:21:00,63.0,33.4,30.19,NE,56,2.0,11.0,33,0.00,,,0.00,meteohub,2013-01-22 22:21:00,
2013-01-22 17:27:00,62.8,33.3,30.19,NE,40,7.0,11.0,33,0.00,,,0.00,meteohub,2013-01-22 22:27:00,
2013-01-22 17:32:00,62.8,34.0,30.19,North,350,2.0,11.0,34,0.00,,,0.00,meteohub,2013-01-22 22:32:00,
2013-01-22 17:40:00,62.4,32.9,30.20,ENE,68,5.0,8.0,33,0.00,,,0.00,meteohub,2013-01-22 22:40:00,
2013-01-22 17:46:00,62.2,32.7,30.20,ENE,59,1.0,8.0,33,0.00,,,0.00,meteohub,2013-01-22 22:46:00,
2013-01-22 17:52:00,61.9,31.6,30.20,East,79,5.0,8.0,32,0.00,,,0.00,meteohub,2013-01-22 22:52:00,
2013-01-22 17:58:00,61.5,31.5,30.20,ENE,62,4.0,9.0,32,0.00,,,0.00,meteohub,2013-01-22 22:58:00,
2013-01-22 18:04:00,61.3,32.0,30.20,ENE,73,4.0,9.0,33,0.00,,,0.00,meteohub,2013-01-22 23:04:00,
2013-01-22 18:10:00,61.2,31.8,30.20,ENE,57,2.0,8.0,33,0.00,,,0.00,meteohub,2013-01-22 23:10:00,
2013-01-22 18:16:00,61.0,31.6,30.21,ENE,57,2.0,8.0,33,0.00,,,0.00,meteohub,2013-01-22 23:16:00,
2013-01-22 18:22:00,60.6,31.3,30.21,ENE,63,4.0,8.0,33,0.00,,,0.00,meteohub,2013-01-22 23:22:00,
2013-01-22 18:27:00,60.4,32.0,30.21,East,79,2.0,8.0,34,0.00,,,0.00,meteohub,2013-01-22 23:27:00,
2013-01-22 18:32:00,60.3,32.5,30.21,ENE,66,3.0,7.0,35,0.00,,,0.00,meteohub,2013-01-22 23:32:00,
2013-01-22 18:38:00,60.1,32.4,30.21,ENE,59,1.0,5.0,35,0.00,,,0.00,meteohub,2013-01-22 23:38:00,
2013-01-22 18:44:00,59.7,32.0,30.21,ENE,62,2.0,4.0,35,0.00,,,0.00,meteohub,2013-01-22 23:44:00,
2013-01-22 18:50:00,59.5,32.5,30.22,ENE,63,2.0,3.0,36,0.00,,,0.00,meteohub,2013-01-22 23:50:00,
2013-01-22 18:56:00,59.4,33.1,30.22,ENE,68,2.0,4.0,37,0.00,,,0.00,meteohub,2013-01-22 23:56:00,
2013-01-22 19:02:00,59.2,32.9,30.22,ENE,75,2.0,4.0,37,0.00,,,0.00,meteohub,2013-01-23 00:02:00,
2013-01-22 19:07:00,58.8,33.3,30.22,ENE,75,0.0,4.0,38,0.00,,,0.00,meteohub,2013-01-23 00:07:00,
2013-01-22 19:12:00,58.6,33.8,30.22,ENE,68,2.0,4.0,39,0.00,,,0.00,meteohub,2013-01-23 00:12:00,
2013-01-22 19:17:00,58.6,33.8,30.22,ENE,68,1.0,4.0,39,0.00,,,0.00,meteohub,2013-01-23 00:17:00,
2013-01-22 19:23:00,58.5,33.6,30.22,ENE,69,1.0,4.0,39,0.00,,,0.00,meteohub,2013-01-23 00:23:00,
2013-01-22 19:29:00,58.5,34.2,30.22,ENE,70,1.0,4.0,40,0.00,,,0.00,meteohub,2013-01-23 00:29:00,
2013-01-22 19:35:00,58.5,34.2,30.22,ENE,70,0.0,3.0,40,0.00,,,0.00,meteohub,2013-01-23 00:35:00,
2013-01-22 19:41:00,58.3,34.7,30.22,ENE,70,1.0,3.0,41,0.00,,,0.00,meteohub,2013-01-23 00:41:00,
2013-01-22 19:47:00,58.3,34.7,30.22,ENE,68,0.0,3.0,41,0.00,,,0.00,meteohub,2013-01-23 00:47:00,
2013-01-22 19:52:00,58.3,34.7,30.22,ENE,68,1.0,3.0,41,0.00,,,0.00,meteohub,2013-01-23 00:52:00,
2013-01-22 19:57:00,58.3,34.7,30.22,ENE,68,1.0,3.0,41,0.00,,,0.00,meteohub,2013-01-23 00:57:00,
2013-01-22 20:03:00,58.1,34.5,30.23,ENE,68,1.0,3.0,41,0.00,,,0.00,meteohub,2013-01-23 01:03:00,
2013-01-22 20:09:00,57.9,34.3,30.23,ENE,68,1.0,3.0,41,0.00,,,0.00,meteohub,2013-01-23 01:09:00,
2013-01-22 20:15:00,57.9,34.9,30.24,ENE,68,1.0,3.0,42,0.00,,,0.00,meteohub,2013-01-23 01:15:00,
2013-01-22 20:21:00,57.7,34.9,30.24,ENE,68,1.0,3.0,42,0.00,,,0.00,meteohub,2013-01-23 01:21:00,
2013-01-22 20:27:00,57.7,35.4,30.24,ENE,68,0.0,2.0,43,0.00,,,0.00,meteohub,2013-01-23 01:27:00,
2013-01-22 20:33:00,57.6,35.8,30.24,ENE,69,0.0,2.0,44,0.00,,,0.00,meteohub,2013-01-23 01:33:00,
2013-01-22 20:39:00,57.4,35.6,30.24,ENE,69,0.0,2.0,44,0.00,,,0.00,meteohub,2013-01-23 01:39:00,
2013-01-22 20:45:00,57.0,35.2,30.24,ENE,70,1.0,3.0,44,0.00,,,0.00,meteohub,2013-01-23 01:45:00,
2013-01-22 20:51:00,56.8,35.2,30.25,ENE,69,0.0,3.0,44,0.00,,,0.00,meteohub,2013-01-23 01:51:00,
2013-01-22 20:57:00,56.8,35.8,30.25,ENE,69,0.0,2.0,45,0.00,,,0.00,meteohub,2013-01-23 01:57:00,
2013-01-22 21:02:00,56.8,35.8,30.25,ENE,69,1.0,2.0,45,0.00,,,0.00,meteohub,2013-01-23 02:02:00,
2013-01-22 21:09:00,56.7,36.1,30.25,ENE,69,0.0,2.0,46,0.00,,,0.00,meteohub,2013-01-23 02:09:00,
2013-01-22 21:15:00,56.7,36.1,30.25,ENE,69,1.0,3.0,46,0.00,,,0.00,meteohub,2013-01-23 02:15:00,
2013-01-22 21:22:00,56.5,36.5,30.25,ENE,69,1.0,3.0,47,0.00,,,0.00,meteohub,2013-01-23 02:22:00,
2013-01-22 21:27:00,56.3,36.3,30.25,ENE,70,0.0,3.0,47,0.00,,,0.00,meteohub,2013-01-23 02:27:00,
2013-01-22 21:32:00,56.3,36.9,30.25,ENE,70,0.0,2.0,48,0.00,,,0.00,meteohub,2013-01-23 02:32:00,
2013-01-22 21:37:00,56.1,36.1,30.25,ENE,69,0.0,2.0,47,0.00,,,0.00,meteohub,2013-01-23 02:37:00,
2013-01-22 21:43:00,56.1,36.7,30.25,ENE,69,0.0,3.0,48,0.00,,,0.00,meteohub,2013-01-23 02:43:00,
2013-01-22 21:49:00,55.9,36.5,30.25,ENE,70,0.0,3.0,48,0.00,,,0.00,meteohub,2013-01-23 02:49:00,
2013-01-22 21:55:00,55.9,36.5,30.25,ENE,69,0.0,2.0,48,0.00,,,0.00,meteohub,2013-01-23 02:55:00,
2013-01-22 22:01:00,55.6,36.7,30.25,ENE,69,0.0,2.0,49,0.00,,,0.00,meteohub,2013-01-23 03:01:00,
2013-01-22 22:07:00,55.4,37.0,30.25,ENE,62,0.0,2.0,50,0.00,,,0.00,meteohub,2013-01-23 03:07:00,
2013-01-22 22:13:00,55.2,36.9,30.25,ENE,66,1.0,2.0,50,0.00,,,0.00,meteohub,2013-01-23 03:13:00,
2013-01-22 22:20:00,55.0,36.7,30.25,ENE,66,1.0,3.0,50,0.00,,,0.00,meteohub,2013-01-23 03:20:00,
2013-01-22 22:26:00,55.0,36.7,30.25,ENE,66,0.0,3.0,50,0.00,,,0.00,meteohub,2013-01-23 03:26:00,
2013-01-22 22:32:00,54.9,36.5,30.25,ENE,66,1.0,3.0,50,0.00,,,0.00,meteohub,2013-01-23 03:32:00,
2013-01-22 22:38:00,54.9,36.5,30.25,ENE,66,3.0,3.0,50,0.00,,,0.00,meteohub,2013-01-23 03:38:00,
2013-01-22 22:44:00,54.9,36.5,30.26,ENE,66,0.0,3.0,50,0.00,,,0.00,meteohub,2013-01-23 03:44:00,
2013-01-22 22:50:00,54.9,36.5,30.26,ENE,66,2.0,3.0,50,0.00,,,0.00,meteohub,2013-01-23 03:50:00,
2013-01-22 22:56:00,54.9,36.5,30.26,ENE,68,3.0,3.0,50,0.00,,,0.00,meteohub,2013-01-23 03:56:00,
2013-01-22 23:02:00,54.9,36.5,30.26,ENE,69,1.0,3.0,50,0.00,,,0.00,meteohub,2013-01-23 04:02:00,
2013-01-22 23:08:00,54.9,36.5,30.26,ENE,70,1.0,3.0,50,0.00,,,0.00,meteohub,2013-01-23 04:08:00,
2013-01-22 23:14:00,54.7,36.9,30.26,ENE,70,0.0,3.0,51,0.00,,,0.00,meteohub,2013-01-23 04:14:00,
2013-01-22 23:20:00,54.3,36.5,30.26,ENE,66,0.0,3.0,51,0.00,,,0.00,meteohub,2013-01-23 04:20:00,
2013-01-22 23:26:00,54.1,36.9,30.26,ENE,68,0.0,3.0,52,0.00,,,0.00,meteohub,2013-01-23 04:26:00,
2013-01-22 23:32:00,54.1,36.9,30.27,ENE,64,0.0,3.0,52,0.00,,,0.00,meteohub,2013-01-23 04:32:00,
2013-01-22 23:37:00,54.1,36.9,30.26,ENE,64,0.0,3.0,52,0.00,,,0.00,meteohub,2013-01-23 04:37:00,
2013-01-22 23:42:00,54.0,37.2,30.26,ENE,65,0.0,3.0,53,0.00,,,0.00,meteohub,2013-01-23 04:42:00,
2013-01-22 23:47:00,54.0,36.7,30.26,ENE,65,0.0,3.0,52,0.00,,,0.00,meteohub,2013-01-23 04:47:00,
2013-01-22 23:54:00,53.8,37.0,30.26,ENE,65,1.0,2.0,53,0.00,,,0.00,meteohub,2013-01-23 04:54:00,